Regional Weather Roundup
Issued by NWS Upton, NY

Current Version | Previous Version | Text Only | Print | Product List | Glossary Off
Versions: 1 2 3 4 5 6 7 8 9 10 11 12 13 14 15 16 17 18 19 20 21 22 23 24 25 26 27 28 29 30 31 32 33 34 35 36 37 38 39 40 41 42 43 44 45 46 47 48 49 50
108 ASUS41 KOKX 232309 RWROKX REGIONAL WEATHER ROUNDUP NATIONAL WEATHER SERVICE NEW YORK NY 700 PM EDT SAT SEP 23 2017 NOTE: "FAIR" INDICATES FEW OR NO CLOUDS BELOW 12,000 FEET WITH NO SIGNIFICANT WEATHER AND/OR OBSTRUCTIONS TO VISIBILITY. NYZ071-072-176-178-NJZ106-104-240000- NEW YORK CITY METRO AREA CITY SKY/WX TMP DP RH WIND PRES REMARKS Central Park CLEAR 82 49 31 N5 30.04R Bronx Bot Gard N/A 79 50 36 N1 30.02S LaGuardia APRT CLEAR 83 53 35 N7 30.00R Kennedy INTL CLEAR 82 50 32 N8 30.01S Breezy Point N/A 81 N/A N/A N6 N/A Newark/Liberty CLEAR 81 50 33 N9 30.01R Teterboro CLEAR 85 50 29 VRB3 30.00R $$ NYZ177-179-078>081-240000- LONG ISLAND NEW YORK CITY SKY/WX TMP DP RH WIND PRES REMARKS Jones Beach N/A 81 N/A N/A N5 N/A Matinecock PT N/A 77 N/A N/A NE2 N/A Farmingdale CLEAR 80 55 42 N3 30.00S MacArthur/ISP PTCLDY 78 61 55 N3 30.00R Shirley CLEAR 75 66 73 CALM 30.01R Mt Sinai Harb N/A N/A N/A N/A MISG N/A Westhampton CLEAR 70 64 81 SE3 30.02R East Hampton FAIR 69 65 85 SE3 30.00R Montauk N/A 70 66 87 CALM 30.02R $$ NYZ052-065-067-240000- HUDSON VALLEY CITY SKY/WX TMP DP RH WIND PRES REMARKS White Plains CLEAR 76 52 43 NW7 30.02S Larchmont Harb N/A 82 N/A N/A NW5 N/A Croton On Huds N/A 79 N/A N/A MISG N/A Newburgh CLEAR 75 61 60 NE6 30.05S Montgomery CLEAR 72 64 76 CALM 30.03S Poughkeepsie CLEAR 75 57 53 CALM 30.01S Albany PTCLDY 72 59 63 W5 30.04R $$ NJZ001-105-106-008-010-013-015-019>022-104-240000- NEW JERSEY CITY SKY/WX TMP DP RH WIND PRES REMARKS Newark/Liberty CLEAR 81 50 33 N9 30.01R Teterboro CLEAR 85 50 29 VRB3 30.00R Caldwell CLEAR 79 60 52 CALM 30.03R Somerville NOT AVBL Linden N/A 85 47 26 N3 30.01 Perth Amboy N/A 81 N/A N/A SE3 N/A Sussex CLEAR 73 66 78 CALM 30.05R Andover N/A 71 65 81 CALM 30.05R Trenton CLEAR 83 57 41 N3 30.02R Millville CLEAR 75 69 81 CALM 30.02R Atlantic City CLEAR 78 67 68 S6 30.03R Wrightstown CLEAR 79 59 49 W5 30.00R Toms River CLEAR 75 65 70 CALM 30.03R Belmar CLEAR 77 61 57 SE3 30.03R $$ PAZ047>061-062-071-240000- EASTERN PENNSYLVANIA CITY SKY/WX TMP DP RH WIND PRES REMARKS Philadelphia PTCLDY 85 53 33 N8 30.03R Allentown CLEAR 80 60 50 N6 30.04R Scranton CLEAR 78 61 55 CALM 30.08S $$ CTZ002-004>006-009-010-012-RIZ004-006-007-MAZ004-011-015-240000- SOUTHERN NEW ENGLAND IN CT CITY SKY/WX TMP DP RH WIND PRES REMARKS Bradley INTL PTCLDY 74 59 59 NW3 30.01R Hartford CLEAR 77 57 50 CALM 30.00R Danbury CLEAR 71 58 63 SW5 30.04R Wtrbury/Oxford CLEAR 73 59 61 N3 30.05R Norwalk Harbor N/A 81 N/A N/A NW5 N/A Bridgeport CLEAR 81 56 42 N5 30.00R Meriden CLEAR 73 58 59 CALM 30.01R New Haven CLEAR 72 64 76 S3 30.01R Chester FAIR 73 61 64 CALM 30.02R Groton CLEAR 68 65 90 CALM 29.99R Wilimantic CLEAR 76 64 66 CALM 30.01R IN RI CITY SKY/WX TMP DP RH WIND PRES REMARKS Providence PTCLDY 73 66 78 NE7 30.01R Block Island CLEAR 66 64 93 E5 30.01R Westerly CLEAR 77 66 68 CALM 30.00R IN MA CITY SKY/WX TMP DP RH WIND PRES REMARKS Boston FOG 61 61 100 CALM 30.02S VSB 1/4 Worcester CLEAR 75 58 55 CALM 30.05S Westfield CLEAR 75 58 55 CALM 30.02R Provincetown FOG 62 61 96 NE6 30.01S VSB 1/4 Nantucket FOG 62 62 100 N16 29.97S VSB 1 $$ ANZ330-335-338-340-345-350-353-355-240000- COASTAL MARINE OBSERVATIONS STATION/POSITION TIME SKY/WX TEMP WIND PRES VSBY WAVE AIR SEA DIR/SP/G HT/PER (UTC) (F) (DEG/KT/KT) (MB) (MI) (FT/S) NY HARB ENTRANCE 2150 79 72 330/ 2/ 4 1015.2 3/11 20 S FIRE ISLAND 2150 74 69 280/ 2/ 4 1015.9 5/14 GREAT SOUTH BAY 2230 77 71 330/ 4/ 4 N/A 23 SSW MONTAUK P 2150 66 64 1015.7 4/14 15 E BARNEGAT LI 2230 70 N/A 5/14 HUDSON CANYON 2150 70 68 10/ 8/ 10 1015.1 6/14 KINGS POINT 2230 79 72 60/ 4/ 5 1016.8 EXECUTION ROCKS 2245 82 10/ 6/ 6 N/A WESTERN LI SOUND NOT AVBL CENTRAL LI SOUND 2200 77 360/ 6/ 8 N/A 1 EASTERN LI SOUND NOT AVBL ROBBINS REEF 2230 85 10/ 11/ 13 1016.7 $$ >>>>>>>>>>>>>>>>>>>>>>>>>>>> KEY <<<<<<<<<<<<<<<<<<<<<<<<<<< > < > SKY/WX - Sky Condition/Present Weather < > TMP - Temperature in Fahrenheit < > DP - Dew Point in Fahrenheit < > RH - Relative Humidity in Percent < > WIND - Direction (from) and Speed in MPH < > PRES - Mean Sea Level Pressure (inches of Hg) < > WCI - Wind Chill Index < > VSB - VISIBILITY IN MILES < > HX - HEAT INDEX < > TC - TEMPERATURE IN CELSIUS < > VRB - VARIABLE WIND DIRECTION < > < >>>>>>>>>>>>>>>>>>>>>>>>>>>> KEY <<<<<<<<<<<<<<<<<<<<<<<<<<<

USA.gov is the U.S. government's official web portal to all federal, state and local government web resources and services.